Torna al catalogo

CZ-6A DEB

AttivoPO
NORAD 61479·DEBRIS·🇨🇳 China

Lanciato Aug 6, 2024 da Taiyuan Satellite Launch Center

Loading…

Prossimi Passaggi (prossime 24 ore)

TLE

AggiornatoSource: Space-Track

Epoca: Sep 14, 2026, 00:27 UTC

1 61479U 24140AAM 26257.01935037  .00000773  00000-0  43111-3 0  9998
2 61479  89.0563 272.2381 0158386 280.3023  78.0334 14.03978915105675

Traccia CZ-6A DEB in tempo reale con AllMySat

Download on the App Store